TimeEST,TemperatureF,Dew PointF,Humidity,Sea Level PressureIn,VisibilityMPH,Wind Direction,Wind SpeedMPH,Gust SpeedMPH,PrecipitationIn,Events,Conditions,WindDirDegrees,DateUTC
12:52 AM,24.1,9.0,53,29.96,10.0,WNW,5.8,-,N/A,,Overcast,300,2013-02-05 05:52:00
1:52 AM,24.1,8.1,51,29.97,10.0,WNW,5.8,-,N/A,,Overcast,290,2013-02-05 06:52:00
2:52 AM,24.1,8.1,51,29.97,10.0,Calm,Calm,-,N/A,,Overcast,0,2013-02-05 07:52:00
3:52 AM,24.1,9.0,53,29.97,10.0,Calm,Calm,-,N/A,,Overcast,0,2013-02-05 08:52:00
4:52 AM,24.1,12.0,60,29.98,10.0,Calm,Calm,-,N/A,,Overcast,0,2013-02-05 09:52:00
5:52 AM,24.1,12.0,60,29.97,10.0,Calm,Calm,-,N/A,,Overcast,0,2013-02-05 10:52:00
6:52 AM,24.1,12.0,60,29.99,10.0,Calm,Calm,-,N/A,,Overcast,0,2013-02-05 11:52:00
7:52 AM,25.0,10.0,53,30.01,10.0,Calm,Calm,-,N/A,,Overcast,0,2013-02-05 12:52:00
8:52 AM,26.1,10.0,51,30.01,10.0,NNE,3.5,-,N/A,,Overcast,20,2013-02-05 13:52:00
9:52 AM,26.1,15.1,63,30.03,3.0,NNE,3.5,-,0.00,Snow,Light Snow,20,2013-02-05 14:52:00
10:52 AM,25.0,16.0,69,30.03,3.0,Calm,Calm,-,0.00,Snow,Light Snow,0,2013-02-05 15:52:00
11:01 AM,26.1,16.0,66,30.02,2.5,Calm,Calm,-,0.00,Snow,Light Snow,0,2013-02-05 16:01:00
11:23 AM,25.0,17.1,72,30.02,1.8,Calm,Calm,-,0.00,Snow,Light Snow,0,2013-02-05 16:23:00
11:29 AM,25.0,17.1,72,30.02,3.0,Calm,Calm,-,0.00,Snow,Light Snow,0,2013-02-05 16:29:00
11:52 AM,26.1,17.1,69,30.01,4.0,Calm,Calm,-,0.00,Snow,Light Snow,0,2013-02-05 16:52:00
12:52 PM,26.1,17.1,69,29.99,8.0,Calm,Calm,-,0.00,,Overcast,0,2013-02-05 17:52:00
1:52 PM,27.0,17.1,66,29.98,10.0,East,3.5,-,N/A,,Overcast,80,2013-02-05 18:52:00
2:52 PM,27.0,16.0,63,29.98,10.0,East,4.6,-,N/A,,Overcast,80,2013-02-05 19:52:00
3:52 PM,27.0,16.0,63,29.95,10.0,East,5.8,-,N/A,,Overcast,100,2013-02-05 20:52:00
4:52 PM,27.0,17.1,66,29.96,10.0,Calm,Calm,-,N/A,,Overcast,0,2013-02-05 21:52:00
5:52 PM,27.0,18.0,69,29.95,10.0,Calm,Calm,-,N/A,,Overcast,0,2013-02-05 22:52:00
6:52 PM,27.0,21.0,78,29.96,3.0,Calm,Calm,-,0.00,Snow,Light Snow,0,2013-02-05 23:52:00
7:04 PM,27.0,21.0,78,29.96,2.5,Calm,Calm,-,0.00,Snow,Light Snow,0,2013-02-06 00:04:00
7:16 PM,27.0,21.0,78,29.96,1.5,Calm,Calm,-,0.00,Snow,Light Snow,0,2013-02-06 00:16:00
7:52 PM,26.1,21.9,84,29.95,1.8,Calm,Calm,-,0.01,Snow,Light Snow,0,2013-02-06 00:52:00
8:16 PM,26.1,21.9,84,29.94,3.0,Calm,Calm,-,0.01,Snow,Light Snow,0,2013-02-06 01:16:00
8:26 PM,26.1,21.9,84,29.95,6.0,Calm,Calm,-,0.01,,Overcast,0,2013-02-06 01:26:00
8:52 PM,27.0,21.9,81,29.95,3.0,North,3.5,-,0.01,Snow,Light Snow,350,2013-02-06 01:52:00
9:52 PM,27.0,21.9,81,29.95,7.0,NNW,4.6,-,0.00,Snow,Light Snow,340,2013-02-06 02:52:00
10:52 PM,27.0,21.9,81,29.94,7.0,NW,3.5,-,0.00,,Overcast,320,2013-02-06 03:52:00
11:19 PM,27.0,21.9,81,29.93,4.0,Calm,Calm,-,0.00,Snow,Light Snow,0,2013-02-06 04:19:00
11:26 PM,27.0,23.0,85,29.93,5.0,Calm,Calm,-,0.00,,Overcast,0,2013-02-06 04:26:00
11:36 PM,27.0,23.0,85,29.93,6.0,Calm,Calm,-,0.00,,Overcast,0,2013-02-06 04:36:00
11:52 PM,27.0,23.0,85,29.93,5.0,NW,3.5,-,0.00,Snow,Light Snow,320,2013-02-06 04:52:00